Regional Weather Roundup
Issued by NWS Wakefield, VA

Home | Current Version | Previous Version | Text Only | Print | Product List | Glossary Off
Versions: 1 2 3 4 5 6 7 8 9 10 11 12 13 14 15 16 17 18 19 20 21 22 23 24 25 26 27

000
ASUS41 KAKQ 112015
RWRAKQ

REGIONAL WEATHER ROUNDUP
NATIONAL WEATHER SERVICE WAKEFIELD VA
300 PM EST MON DEC 11 2017

Note: "fair" indicates few or no clouds below 12,000 feet with no
significant weather and/or obstructions to visibility. * = Denotes
station may not report precipitation (e.g., rain,snow,etc.),
thunder or fog.

VAZ042-051-052>054-056-112100-
NORTHERN VIRGINIA

CITY           SKY/WX    TMP DP  RH WIND       PRES   REMARKS
WASH NATIONAL  MOSUNNY   48  27  44 S9        30.00S
DULLES         PTSUNNY   47  25  42 S9        29.97F
FORT BELVOIR   SUNNY     48  24  39 SE7       29.99S
QUANTICO       MOSUNNY   48  35  60 S8        30.01S
FREDERICKSBRG* SUNNY     51  27  39 SW9       30.00R
STAFFORD*      SUNNY     49  24  36 W3        30.04R
WARRENTON      SUNNY     50  19  29 S7        29.97F
CULPEPER*      SUNNY     50  21  32 S6        29.99F
MANASSAS*      SUNNY     49  25  39 S8        29.98F
LEESBURG*      SUNNY     46  28  49 SW7       29.97F
WINCHESTER     MOSUNNY   45  23  42 SW6       29.96R
FRONT ROYAL*   PTCLDY    45  25  45 MISG      29.94S
LURAY*         CLEAR     46  27  46 SW8       29.95R
$$

VAZ048-049-060>072-079>083-112100-
CENTRAL AND SOUTH CENTRAL VIRGINIA

CITY           SKY/WX    TMP DP  RH WIND       PRES   REMARKS
RICHMOND       MOSUNNY   48  30  49 S9        30.02S
CHESTERFIELD*  NOT AVBL
PETERSBURG*    SUNNY     50  25  37 SW9       30.03S
HANOVER        SUNNY     49  27  42 SW6       30.03R
TAPPAHANNOCK*    N/A    N/A N/A N/A MISG        N/A
QUINTON*       FAIR      48  26  42 SE3       30.01F
CHARLOTTSVILLE SUNNY     51  23  33 S7        29.96F
GORDONSVILLE*  CLEAR     49  24  37 S8        29.97F
ORANGE*        SUNNY     48  25  40 CALM      29.97F
LOUISA*        SUNNY     49  22  35 SW5       30.03F
BUMPASS*       FAIR      49  22  34 S8        30.00S
FARMVILLE*     SUNNY     49  30  47 S8        29.98F
CREWE*         FAIR      49  28  45 CALM      30.01F
FORT PICKETT*  NOT AVBL
CHASE CITY*    FAIR      48  28  46 CALM      30.02S
CLARKSVILLE*   FAIR      50  28  43 CALM      30.02F
SOUTH HILL*    SUNNY     50  29  44 S6        30.07F
LAWRENCEVILLE* FAIR      50  27  40 SW5       30.02S
EMPORIA*       SUNNY     50  30  46 S8        30.05S
$$

VAZ088>098-112100-
SOUTHEAST VIRGINIA

CITY           SKY/WX    TMP DP  RH WIND       PRES   REMARKS
NORFOLK        SUNNY     50  31  48 NE7       30.03F
VIRGINIA BEACH SUNNY     46  29  51 E7        30.04S
NORFOLK NAVAL  SUNNY     50  24  36 SE5       30.05S
WEST POINT*    SUNNY    N/A N/A N/A SE5       30.04F
SALUDA*        FAIR      46  32  59 E7        30.03S
NEWPORT NEWS   SUNNY     49  24  37 S6        30.04R
LANGLEY AFB    SUNNY     47  31  52 SE5       30.04S
FORT EUSTIS    SUNNY     49  26  41 CALM      30.01S
WILLIAMSBURG*  SUNNY     52  27  37 CALM      30.03F
HR EXEC AP*    FAIR      51  27  39 S7        30.04F
FRANKLIN*      SUNNY     50  27  41 S9        30.04S
US460-WAKEFLD  SUNNY     50  28  42 S5        30.04S
$$

VAZ020-022-025-037-045-112100-
WEST CENTRAL AND SOUTHWEST VIRGINIA

CITY           SKY/WX    TMP DP  RH WIND       PRES   REMARKS
STAUNTON*      MOSUNNY   46  24  41 S8        29.96F
WAYNESBORO*    CLEAR     46  23  40 S7        29.95S
HOT SPRINGS VA PTSUNNY   38  20  48 W9        29.90S
LYNCHBURG      SUNNY     49  25  39 VRB7      29.99F
DANVILLE       SUNNY     48  29  47 SW7       30.02F
SOUTH BOSTON*  FAIR      50  28  42 SW7       30.02F
MARTINSVILLE   SUNNY     50  27  41 S3        30.02F
ROANOKE        SUNNY     52  26  36 SW8       29.97F
BLACKSBURG     SUNNY     48  28  46 SW8       29.97F
DUBLIN*        SUNNY     50  26  38 SW12      29.95F
MARION*        SUNNY     46  25  42 W14G20    29.96F
HILLSVILLE*    SUNNY     47  26  44 S7        29.94F
RICHLANDS*     FAIR      46   8  20 W5        29.94F
WISE*          SUNNY     50  28  43 SW8       29.94F
ABINGDON*      SUNNY     49  29  46 SW8       29.97F
$$

MDZ021>025-VAZ099-100-112100-
SOUTHERN MARYLAND AND THE DELMARVA PENINSULA

CITY           SKY/WX    TMP DP  RH WIND       PRES   REMARKS
PATUXENT RIVER MOSUNNY   44  30  57 SE7       30.02S
BAY BRIDGE APT SUNNY     46  28  49 SE7       30.00S
LEONARDTOWN    SUNNY     45  27  49 S3        30.02S
DOVER          MOSUNNY   45  25  46 W5        30.00F
GEORGETOWN     SUNNY     44  27  51 SW7       30.02F
EASTON         SUNNY     46  25  42 W6        30.04F
CAMBRIDGE      SUNNY     45  25  45 E3        30.02S
SALISBURY      SUNNY     44  27  51 CALM      30.03R
OCEAN CITY     SUNNY     44  29  55 SW7       30.03F
WALLOPS ISLAND MOSUNNY   45  27  49 SE9       30.04S
ACCOMACK*      SUNNY     47  29  51 SE9       30.04R
$$

NCZ012>017-030>032-112100-
NORTH CENTRAL AND EASTERN NORTH CAROLINA

CITY           SKY/WX    TMP DP  RH WIND       PRES   REMARKS
ROANOKE RAPIDS FAIR      52  30  43 CALM      30.03F
RALEIGH        SUNNY     54  29  38 SW6       30.03F
ELIZABETH CITY SUNNY     51  31  46 S5        30.05F
AHOSKIE*       SUNNY     51  29  43 S3        30.04F
EDENTON*       SUNNY     53  31  44 S5        30.06S
CURRITUCK*     SUNNY     49  29  46 NE6       30.05F
KILL DEVIL HLS SUNNY     47  30  53 CALM      30.05F
MANTEO         SUNNY     48  28  46 N5        30.07F
CAPE HATTERAS  SUNNY     50  34  54 VRB3      30.06F
TARBORO*       NOT AVBL
GOLDSBORO      SUNNY     55  29  36 SW5       30.03F
WASHINGTON     SUNNY     53  29  39 W5        30.06S
GREENVILLE     SUNNY     54  32  43 W6        30.06F
NEW BERN       SUNNY     54  29  38 SW7       30.06F
WILMINGTON     SUNNY     54  23  30 VRB6      30.07F
$$

VAZ048-112100-
ELSEWHERE

CITY           SKY/WX    TMP DP  RH WIND       PRES   REMARKS
HARRISBURG PA  PTSUNNY   42  22  44 VRB3      29.98F
BALTIMORE      MOSUNNY   46  24  42 W6        29.98F
ANNAPOLIS      SUNNY     45  32  60 S9        30.01S
ANDREWS AFB    SUNNY     47  22  37 SW7       29.99S
PHILADELPHIA   PTSUNNY   41  21  44 W7G20     30.01F
HENDERSON NC   SUNNY     49  25  39 W6        30.02F
GREENSBORO     SUNNY     49  28  44 W7        30.00F
ROCKY MOUNT    SUNNY     53  29  39 SW3       30.04F
$$

VAZ100-112100-
MARINE

STATION/POSITION TIME  TEMP    WIND        PRES    WAVE   SWELL
                       AIR SEA DIR/SP/G            HT/PER HT/PER
                 (UTC) (F)     (DEG/KT/KT) (MB)    (FT/S) (FT/S)
BRANDYWINE LGT   1936   44     360/  8/  9 1016.6F
CAPE MAY NJ      1948   44 44  360/  3/  5 1015.9S
LEWES DE         1948   44 46  300/  5/  6 1016.2F
15NM E FENWICK I 1950   44 54  260/  4/  8 1017.3F   2/ 5   2/ 5
OCEAN-CITY-INLET 1948   44 48  210/  8/ 11 1017.2F
WACHAPREAGUE VA  1948   45 44  180/  7/  9 1017.0R
THOMAS POINT MD  2000   43 48  160/ 10/ 11   N/A
GOOSES REEF MD   2000   45 48  160/  8/  8 1016.9    0
COVE POINT MD    1948   43     160/ 10/ 11 1016.9F
SOLOMONS ISLAND  1948   44 49  140/  9/ 10 1016.1S
BISHOPS HEAD MD  1948   42 41  160/  6/  6 1017.1R
PINEY POINT MD   1948          180/  5/  6   N/A
POTOMAC MD       2000   45 49  160/  6/  6 1016.4    0
CAMBRIDGE MD     1936   45 45              1017.0F
LEWISETTA VA     1948   43 45  130/  6/  7 1016.8R
RAPPAHANNOCK LGT 1948          220/  3/  4 1017.9R
STINGRAY PT      1950   43     180/  8/ 12 1017.5R
YORK RVR RNG VA  1948   44     160/  9/ 11 1017.9R
YORKTOWN VA      1948   47 50  120/  8/ 10 1016.8R
JAMESTOWN VA     2000      48  140/  6/  8   N/A     0
DOMINION TERM VA 1948   47     130/  5/  6 1017.2F
KIPTOPEKE VA     1948      49  210/  6/  7   N/A
CAPE HENRY VA    1948   45      90/  4/  5   N/A
WILLOUBY STN VA  1936   44     100/  6/  6 1017.2S
S CRANEY ISL VA  1948   50      50/  1/  2 1017.0F
CAPE HENRY BUOY  2000      53                N/A     1/ 9
1ST LANDING BUOY 2000   44 50  140/  6/  8 1017.5    1
CAPE CHARLES BUO 1951      54                N/A     1/11
64NM E OF VA BCH 1950   47 60  310/  8/ 10 1018.0F   3/ 4   3/ 4
DUCK PIER NC     1948   47 55  160/  3/  5 1017.3F
44100 DUCK FRF   1945      56                N/A     2/ 8
44056 DUCK FRF   2000      54                N/A     1/10
OREGON INLET NC  1936   48 46  300/  5/  8 1017.9F
HATTERAS NC      1948   49 51  310/  4/  5 1017.8F
DIAMOND SHLS NC  1950   51 75  290/  8/ 12 1018.4F   3/ 6   3/ 6
CAPE LOOKOUT NC  2000          240/  3/  4 1018.2F
$$




USA.gov is the U.S. government's official web portal to all federal, state and local government web resources and services.